Carbondale, IL

4:53 PM CST on November 22, 2019 (GMT -0600)
Southern Illinois

Weather History for KMDH - August, 2019

Change the Weather History Date:

Monday, August 26, 2019

  Actual Average Record
Temperature  
Mean Temperature 76 °F -  
Max Temperature 84 °F 87 °F 101 °F (1936)
Min Temperature 69 °F 62 °F 45 °F (1910)
Cooling Degree Days 12    
Growing Degree Days 26 (Base 50)    
Moisture  
Dew Point 71 °F    
Average Humidity 87    
Maximum Humidity 96    
Minimum Humidity 67    
Precipitation  
Precipitation 0.04 in - - ()
Sea Level Pressure  
Sea Level Pressure 29.82 in    
Wind  
Wind Speed 8 mph (South)    
Max Wind Speed 15 mph    
Max Gust Speed 21 mph    
Visibility 9 miles    
Events Rain    
Averages and records for this station are not official NWS values.
T = Trace of Precipitation, MM = Missing Value Source: NWS Daily Summary

Daily Weather History Graph

Daily Weather History Graph

Search for Another Location

Airport or City:

Astronomy

Aug. 26, 2019 Rise Set
Actual Time 6:21 AM CDT 7:35 PM CDT
Civil Twilight 5:54 AM CDT 8:02 PM CDT
Nautical Twilight 5:22 AM CDT 8:34 PM CDT
Astronomical Twilight 4:48 AM CDT 9:08 PM CDT
Moon 1:50 AM CDT (8/26) 4:54 PM CDT (8/26)
Length of Visible Light 14h 07m
Length of Day
13h 13m
Waning Crescent, 19% of the Moon is Illuminated
Aug 26
Waning Crescent
Aug 30
New
Sep 5
First Quarter
Sep 13
Full
Sep 21
Last Quarter

Hourly Weather History & Observations

Time (CDT) Temp. Heat Index Dew Point Humidity Pressure Visibility Wind Dir Wind Speed Gust Speed Precip Events Conditions
12:22 AM 73.0 °F - 71.1 °F 93% 29.87 in 10.0 mi South 11.5 mph - 0.01 in   Overcast
12:48 AM 73.4 °F - 71.6 °F 94% 29.86 in 10.0 mi South 5.8 mph - 0.01 in   Mostly Cloudy
12:52 AM 73.0 °F - 71.1 °F 93% 29.85 in 10.0 mi South 4.6 mph - 0.01 in   Mostly Cloudy
1:52 AM 73.0 °F - 70.0 °F 90% 29.83 in 10.0 mi South 5.8 mph - N/A   Overcast
2:52 AM 72.0 °F - 70.0 °F 93% 29.83 in 10.0 mi South 6.9 mph - N/A   Mostly Cloudy
3:01 AM 72.0 °F - 70.0 °F 93% 29.84 in 10.0 mi South 8.1 mph - N/A   Mostly Cloudy
3:52 AM 73.0 °F - 69.1 °F 87% 29.83 in 10.0 mi South 6.9 mph - N/A   Overcast
4:14 AM 72.0 °F - 69.1 °F 91% 29.84 in 10.0 mi South 9.2 mph - N/A   Overcast
4:52 AM 72.0 °F - 70.0 °F 93% 29.82 in 6.0 mi South 8.1 mph - N/A   Overcast
5:24 AM 71.1 °F - 70.0 °F 96% 29.83 in 5.0 mi South 5.8 mph - N/A   Overcast
5:52 AM 71.1 °F - 70.0 °F 96% 29.83 in 9.0 mi South 5.8 mph - N/A   Overcast
6:52 AM 72.0 °F - 70.0 °F 93% 29.83 in 10.0 mi SSE 5.8 mph - N/A   Overcast
7:52 AM 73.0 °F - 71.1 °F 93% 29.83 in 7.0 mi South 5.8 mph - N/A   Overcast
8:03 AM 73.0 °F - 71.1 °F 93% 29.84 in 2.5 mi SSE 5.8 mph - N/A   Overcast
8:28 AM 73.0 °F - 72.0 °F 96% 29.83 in 5.0 mi SSE 6.9 mph - N/A   Overcast
8:52 AM 73.9 °F - 72.0 °F 93% 29.83 in 10.0 mi South 9.2 mph - N/A   Overcast
9:52 AM 75.0 °F - 72.0 °F 90% 29.83 in 10.0 mi SSW 9.2 mph - N/A   Overcast
10:49 AM 77.0 °F - 71.6 °F 83% 29.85 in 10.0 mi South 8.1 mph - N/A   Overcast
10:52 AM 77.0 °F - 72.0 °F 84% 29.84 in 10.0 mi South 9.2 mph - N/A   Overcast
11:52 AM 79.0 °F - 72.0 °F 79% 29.84 in 10.0 mi South 12.7 mph - N/A   Overcast
12:52 PM 81.0 °F 85.8 °F 73.0 °F 77% 29.82 in 10.0 mi South 11.5 mph - N/A   Overcast
1:43 PM 82.9 °F 88.8 °F 73.0 °F 72% 29.82 in 10.0 mi SSW 12.7 mph - N/A   Scattered Clouds
1:52 PM 84.0 °F 90.2 °F 73.0 °F 69% 29.81 in 10.0 mi SSW 15.0 mph 19.6 mph N/A   Scattered Clouds
2:17 PM 82.0 °F 87.4 °F 73.0 °F 74% 29.81 in 10.0 mi South 13.8 mph - N/A   Mostly Cloudy
2:31 PM 84.0 °F 90.2 °F 73.0 °F 69% 29.81 in 10.0 mi SSW 15.0 mph - N/A   Scattered Clouds
2:52 PM 84.0 °F 90.2 °F 73.0 °F 69% 29.79 in 10.0 mi SSW 13.8 mph 19.6 mph N/A   Mostly Cloudy
3:52 PM 84.9 °F 91.4 °F 73.0 °F 67% 29.80 in 10.0 mi SSW 12.7 mph - N/A   Scattered Clouds
4:52 PM 82.9 °F 88.8 °F 73.0 °F 72% 29.78 in 10.0 mi SSW 11.5 mph 20.7 mph N/A   Clear
5:52 PM 81.0 °F 85.8 °F 73.0 °F 77% 29.77 in 10.0 mi South 11.5 mph - N/A   Clear
6:52 PM 73.0 °F - 71.1 °F 93% 29.73 in 7.0 mi South 8.1 mph - 0.02 in Rain Light Rain
7:52 PM 71.1 °F - 68.0 °F 90% 29.73 in 10.0 mi WNW 10.4 mph - 0.01 in   Scattered Clouds
8:52 PM 70.0 °F - 68.0 °F 93% 29.81 in 10.0 mi NNW 6.9 mph - N/A   Clear
9:52 PM 69.1 °F - 66.9 °F 93% 29.85 in 10.0 mi SSW 5.8 mph - N/A   Scattered Clouds
10:52 PM 69.1 °F - 66.9 °F 93% 29.85 in 10.0 mi SSW 3.5 mph - N/A   Clear
11:35 PM 69.1 °F - 68.0 °F 96% 29.84 in 10.0 mi SE 3.5 mph - N/A   Mostly Cloudy
11:52 PM 69.1 °F - 66.9 °F 93% 29.82 in 10.0 mi SSE 4.6 mph - N/A   Mostly Cloudy